Weather History for KCDD - August, 2013

Change the Weather History Date:

Wednesday, August 14, 2013

  Actual Average Record
Temperature  
Mean Temperature 53 °F -  
Max Temperature 73 °F 73 °F 86 °F (2003)
Min Temperature 33 °F 52 °F 33 °F (2013)
Degree Days  
Heating Degree Days 12    
Growing Degree Days 3 (Base 50)    
Moisture  
Dew Point 44 °F    
Average Humidity 75    
Maximum Humidity 100    
Minimum Humidity 41    
Precipitation  
Precipitation 0.00 in - - ()
Sea Level Pressure  
Sea Level Pressure 30.17 in    
Wind  
Wind Speed 1 mph (NNW)    
Max Wind Speed 6 mph    
Max Gust Speed 9 mph    
Visibility 10 miles    
Events      
Averages and records for this station are not official NWS values.
T = Trace of Precipitation, MM = Missing Value Source: NWS Daily Summary

Daily Weather History Graph

Daily Weather History Graph

Search for Another Location

Airport or City:

Trip Planner

Search our weather history database for the weather conditions in past years. The results will help you decide how hot, cold, wet, or windy it might be!

Date:

Astronomy

Aug. 14, 2013 Rise Set
Actual Time 6:03 AM CDT 8:25 PM CDT
Civil Twilight 5:28 AM CDT 8:59 PM CDT
Nautical Twilight 4:45 AM CDT 9:42 PM CDT
Astronomical Twilight 3:55 AM CDT 10:31 PM CDT
Moon 2:43 PM CDT (8/14) No Moon Set
Length of Visible Light 15h 30m
Length of Day
14h 21m
First Quarter, 53% of the Moon is Illuminated
Aug 14
First Quarter
Aug 20
Full
Aug 28
Last Quarter
Sep 5
New
Sep 12
First Quarter

Hourly Weather History & Observations

Time (CDT) Temp. Dew Point Humidity Pressure Visibility Wind Dir Wind Speed Gust Speed Precip Events Conditions
12:12 AM 37.4 °F 35.6 °F 93% 30.22 in 10.0 mi Calm Calm - N/A   Clear
12:32 AM 37.4 °F 35.6 °F 93% 30.22 in 10.0 mi Calm Calm - N/A   Clear
12:52 AM 37.4 °F 35.6 °F 93% 30.22 in 10.0 mi Calm Calm - N/A   Clear
1:11 AM 37.4 °F 35.6 °F 93% 30.22 in 10.0 mi Calm Calm - N/A   Clear
1:32 AM 35.6 °F 33.8 °F 93% 30.22 in 10.0 mi Calm Calm - N/A   Clear
1:51 AM 35.6 °F 33.8 °F 93% 30.22 in 10.0 mi Calm Calm - N/A   Clear
2:12 AM 35.6 °F 33.8 °F 93% 30.22 in 10.0 mi Calm Calm - N/A   Clear
2:32 AM 35.6 °F 33.8 °F 93% 30.22 in 10.0 mi Calm Calm - N/A   Clear
2:52 AM 35.6 °F 33.8 °F 93% 30.22 in 10.0 mi Calm Calm - N/A   Clear
3:11 AM 35.6 °F 32.0 °F 87% 30.22 in 10.0 mi Calm Calm - N/A   Clear
3:31 AM 33.8 °F 32.0 °F 93% 30.22 in 10.0 mi Calm Calm - N/A   Clear
3:52 AM 33.8 °F 32.0 °F 93% 30.22 in 10.0 mi Calm Calm - N/A   Clear
4:12 AM 33.8 °F 32.0 °F 93% 30.22 in 10.0 mi Calm Calm - N/A   Clear
4:32 AM 33.8 °F 32.0 °F 93% 30.22 in 10.0 mi Calm Calm - N/A   Clear
4:52 AM 33.8 °F 30.2 °F 87% 30.22 in 10.0 mi Calm Calm - N/A   Clear
5:11 AM 33.8 °F 30.2 °F 87% 30.23 in 10.0 mi Calm Calm - N/A   Clear
5:31 AM 33.8 °F 30.2 °F 87% 30.23 in 10.0 mi Calm Calm - N/A   Clear
5:51 AM 33.8 °F 30.2 °F 87% 30.23 in 10.0 mi Calm Calm - N/A   Clear
6:11 AM 33.8 °F 30.2 °F 87% 30.23 in 10.0 mi Calm Calm - N/A   Clear
6:31 AM 33.8 °F 30.2 °F 87% 30.23 in 10.0 mi Calm Calm - N/A   Clear
6:52 AM 33.8 °F 32.0 °F 93% 30.23 in 10.0 mi Calm Calm - N/A   Clear
7:12 AM 35.6 °F 33.8 °F 93% 30.23 in 10.0 mi Calm Calm - N/A   Clear
7:31 AM 35.6 °F 35.6 °F 100% 30.23 in 10.0 mi Calm Calm - N/A   Clear
7:51 AM 39.2 °F 37.4 °F 93% 30.23 in 10.0 mi Calm Calm - N/A   Clear
8:11 AM 42.8 °F 42.8 °F 100% 30.23 in 10.0 mi Calm Calm - N/A   Clear
8:31 AM 46.4 °F 44.6 °F 93% 30.22 in 10.0 mi Calm Calm - N/A   Clear
8:51 AM 51.8 °F 50.0 °F 94% 30.22 in 10.0 mi Calm Calm - N/A   Scattered Clouds
9:12 AM 55.4 °F 53.6 °F 94% 30.22 in 10.0 mi Calm Calm - N/A   Mostly Cloudy
9:31 AM 60.8 °F 57.2 °F 88% 30.21 in 10.0 mi Calm Calm - N/A   Mostly Cloudy
9:51 AM 62.6 °F 59.0 °F 88% 30.21 in 10.0 mi Calm Calm - N/A   Scattered Clouds
10:11 AM 64.4 °F 60.8 °F 88% 30.21 in 10.0 mi Calm Calm - N/A   Scattered Clouds
10:31 AM 66.2 °F 59.0 °F 78% 30.21 in 10.0 mi NNW 4.6 mph - N/A   Scattered Clouds
10:51 AM 66.2 °F 48.2 °F 52% 30.20 in 10.0 mi Calm Calm - N/A   Scattered Clouds
11:11 AM 68.0 °F 59.0 °F 73% 30.20 in 10.0 mi Calm Calm - N/A   Scattered Clouds
11:31 AM 68.0 °F 60.8 °F 78% 30.20 in 10.0 mi Calm Calm - N/A   Scattered Clouds
11:51 AM 69.8 °F 57.2 °F 64% 30.19 in 10.0 mi North 4.6 mph - N/A   Scattered Clouds
12:11 PM 69.8 °F 53.6 °F 56% 30.18 in 10.0 mi North 4.6 mph - N/A   Scattered Clouds
12:32 PM 69.8 °F 53.6 °F 56% 30.18 in 10.0 mi Calm Calm - N/A   Scattered Clouds
12:51 PM 69.8 °F 51.8 °F 53% 30.17 in 10.0 mi NW 4.6 mph - N/A   Scattered Clouds
1:11 PM 68.0 °F 48.2 °F 49% 30.17 in 10.0 mi North 3.5 mph - N/A   Mostly Cloudy
1:31 PM 69.8 °F 48.2 °F 46% 30.16 in 10.0 mi NNW 4.6 mph - N/A   Mostly Cloudy
1:51 PM 69.8 °F 50.0 °F 49% 30.16 in 10.0 mi Calm Calm - N/A   Scattered Clouds
2:51 PM 69.8 °F 46.4 °F 43% 30.14 in 10.0 mi NW 4.6 mph 9.2 mph N/A   Scattered Clouds
3:11 PM 71.6 °F 51.8 °F 50% 30.13 in 10.0 mi NNW 4.6 mph - N/A   Mostly Cloudy
3:31 PM 71.6 °F 50.0 °F 46% 30.13 in 10.0 mi NNE 3.5 mph - N/A   Mostly Cloudy
3:52 PM 73.4 °F 48.2 °F 41% 30.13 in 10.0 mi NW 4.6 mph - N/A   Scattered Clouds
4:11 PM 71.6 °F 46.4 °F 41% 30.12 in 10.0 mi NW 4.6 mph - N/A   Scattered Clouds
4:32 PM 73.4 °F 48.2 °F 41% 30.12 in 10.0 mi North 4.6 mph - N/A   Clear
4:51 PM 73.4 °F 48.2 °F 41% 30.11 in 10.0 mi North 3.5 mph - N/A   Scattered Clouds
5:11 PM 73.4 °F 48.2 °F 41% 30.11 in 10.0 mi Calm Calm - N/A   Scattered Clouds
5:31 PM 73.4 °F 50.0 °F 44% 30.10 in 10.0 mi NNE 5.8 mph - N/A   Scattered Clouds
5:52 PM 73.4 °F 50.0 °F 44% 30.10 in 10.0 mi Calm Calm - N/A   Scattered Clouds
6:12 PM 73.4 °F 48.2 °F 41% 30.10 in 10.0 mi NNW 3.5 mph - N/A   Clear
6:31 PM 71.6 °F 50.0 °F 46% 30.10 in 10.0 mi Calm Calm - N/A   Clear
6:51 PM 71.6 °F 48.2 °F 43% 30.10 in 10.0 mi Calm Calm - N/A   Clear
7:12 PM 69.8 °F 48.2 °F 46% 30.09 in 10.0 mi North 3.5 mph - N/A   Clear
7:32 PM 66.2 °F 48.2 °F 52% 30.09 in 10.0 mi Calm Calm - N/A   Clear
7:52 PM 60.8 °F 46.4 °F 59% 30.09 in 10.0 mi Calm Calm - N/A   Clear
8:11 PM 57.2 °F 48.2 °F 72% 30.09 in 10.0 mi Calm Calm - N/A   Clear
8:31 PM 53.6 °F 46.4 °F 77% 30.09 in 10.0 mi Calm Calm - N/A   Clear
8:51 PM 51.8 °F 44.6 °F 76% 30.09 in 10.0 mi Calm Calm - N/A   Clear
9:11 PM 50.0 °F 44.6 °F 82% 30.09 in 10.0 mi Calm Calm - N/A   Clear
9:32 PM 48.2 °F 44.6 °F 87% 30.10 in 10.0 mi Calm Calm - N/A   Clear
9:51 PM 48.2 °F 44.6 °F 87% 30.10 in 10.0 mi Calm Calm - N/A   Clear
10:11 PM 46.4 °F 44.6 °F 93% 30.10 in 10.0 mi Calm Calm - N/A   Clear
10:32 PM 46.4 °F 42.8 °F 87% 30.10 in 10.0 mi Calm Calm - N/A   Clear
10:51 PM 44.6 °F 42.8 °F 93% 30.10 in 10.0 mi Calm Calm - N/A   Clear
11:11 PM 44.6 °F 41.0 °F 87% 30.10 in 10.0 mi Calm Calm - N/A   Clear
11:31 PM 44.6 °F 41.0 °F 87% 30.10 in 10.0 mi Calm Calm - N/A   Clear
11:51 PM 44.6 °F 41.0 °F 87% 30.10 in 10.0 mi Calm Calm - N/A   Clear